Plattsburgh, NY

1:38 AM EDT on May 23, 2017 (GMT -0400)
Plattsburgh International

Weather History for KPBG - May, 2013

Change the Weather History Date:

Saturday, May 11, 2013

  Actual Average Record
Temperature  
Mean Temperature 61 °F 55 °F  
Max Temperature 71 °F 66 °F 82 °F (1953)
Min Temperature 50 °F 43 °F 30 °F (1956)
Degree Days  
Heating Degree Days 4 10  
Month to date heating degree days 133  
Since 1 July heating degree days 7477  
Cooling Degree Days 0 0  
Month to date cooling degree days 0 0  
Year to date cooling degree days 0 0  
Growing Degree Days 10 (Base 50)    
Moisture  
Dew Point 56 °F    
Average Humidity 80    
Maximum Humidity 100    
Minimum Humidity 60    
Precipitation  
Precipitation 0.18 in - 0.52 in (1958)
Month to date precipitation 0.32  
Year to date precipitation 4.28  
Sea Level Pressure  
Sea Level Pressure 29.65 in    
Wind  
Wind Speed 7 mph (SSE)    
Max Wind Speed 20 mph    
Max Gust Speed 26 mph    
Visibility 8 miles    
Events Rain    
T = Trace of Precipitation, MM = Missing Value Source: NWS Daily Summary

Daily Weather History Graph

Daily Weather History Graph

Search for Another Location

Airport or City:

Trip Planner

Search our weather history database for the weather conditions in past years. The results will help you decide how hot, cold, wet, or windy it might be!

Date:

Astronomy

May. 11, 2013 Rise Set
Actual Time 5:30 AM EDT 8:10 PM EDT
Civil Twilight 4:56 AM EDT 8:44 PM EDT
Nautical Twilight 4:14 AM EDT 9:26 PM EDT
Astronomical Twilight 3:26 AM EDT 10:15 PM EDT
Moon 6:34 AM EDT (5/11) 9:50 PM EDT (5/11)
Length of Visible Light 15h 47m
Length of Day
14h 40m
Waxing Crescent, 3% of the Moon is Illuminated
May 11
Waxing Crescent
May 18
First Quarter
May 25
Full
May 31
Last Quarter
Jun 8
New

Hourly Weather History & Observations

Time (EDT) Temp. Dew Point Humidity Pressure Visibility Wind Dir Wind Speed Gust Speed Precip Events Conditions
12:53 AM 57.9 °F 55.0 °F 90% 29.74 in 10.0 mi SE 9.2 mph - N/A   Overcast
1:53 AM 57.9 °F 57.0 °F 97% 29.73 in 6.0 mi Calm Calm - 0.02 in Rain Light Rain
2:53 AM 57.9 °F 55.9 °F 93% 29.70 in 9.0 mi SSE 9.2 mph - 0.02 in Rain Light Rain
3:53 AM 59.0 °F 57.9 °F 96% 29.68 in 5.0 mi SSE 10.4 mph - 0.06 in Rain Rain
4:53 AM 59.0 °F 57.9 °F 96% 29.66 in 7.0 mi SSE 8.1 mph - 0.04 in Rain Light Rain
5:53 AM 59.0 °F 57.9 °F 96% 29.65 in 8.0 mi SSE 8.1 mph - 0.01 in Rain Light Rain
6:53 AM 60.1 °F 59.0 °F 96% 29.65 in 7.0 mi SSE 5.8 mph - 0.00 in Rain Light Rain
7:53 AM 61.0 °F 59.0 °F 93% 29.65 in 8.0 mi Calm Calm - 0.00 in Rain Light Rain
8:02 AM 60.8 °F 59.0 °F 94% 29.64 in 2.5 mi Calm Calm - 0.00 in Rain Light Rain
8:35 AM 60.8 °F 59.0 °F 94% 29.64 in 1.5 mi ESE 6.9 mph - 0.02 in Rain Light Rain
8:39 AM 60.8 °F 59.0 °F 94% 29.64 in 2.5 mi ESE 8.1 mph - 0.02 in Rain Light Rain
8:48 AM 60.8 °F 60.8 °F 100% 29.63 in 4.0 mi SE 8.1 mph - 0.02 in Rain Light Rain
8:53 AM 61.0 °F 60.1 °F 97% 29.63 in 5.0 mi SE 6.9 mph - 0.02 in Rain Light Rain
9:29 AM 64.4 °F 60.8 °F 88% 29.62 in 10.0 mi SE 9.2 mph - N/A   Mostly Cloudy
9:39 AM 64.4 °F 60.8 °F 88% 29.62 in 10.0 mi SE 9.2 mph - N/A   Mostly Cloudy
9:53 AM 64.0 °F 60.1 °F 87% 29.62 in 10.0 mi SE 8.1 mph - N/A   Mostly Cloudy
10:00 AM 64.4 °F 60.8 °F 88% 29.61 in 10.0 mi SE 8.1 mph - N/A   Mostly Cloudy
10:51 AM 66.2 °F 60.8 °F 83% 29.61 in 10.0 mi SSE 11.5 mph - 0.01 in   Mostly Cloudy
10:53 AM 66.9 °F 60.1 °F 79% 29.61 in 10.0 mi SSE 10.4 mph - 0.01 in   Mostly Cloudy
11:53 AM 66.9 °F 60.1 °F 79% 29.60 in 10.0 mi SSE 12.7 mph - N/A   Overcast
12:53 PM 66.9 °F 59.0 °F 76% 29.59 in 10.0 mi SSE 9.2 mph 19.6 mph N/A   Overcast
1:53 PM 68.0 °F 63.0 °F 84% 29.59 in 10.0 mi South 5.8 mph - 0.00 in Rain Light Rain
2:53 PM 69.1 °F 54.0 °F 58% 29.59 in 10.0 mi West 9.2 mph 19.6 mph 0.00 in   Clear
3:53 PM 64.9 °F 51.1 °F 61% 29.62 in 10.0 mi West 9.2 mph - N/A   Clear
4:53 PM 63.0 °F 48.0 °F 58% 29.63 in 10.0 mi Variable 6.9 mph 21.9 mph N/A   Clear
5:53 PM 60.1 °F 46.9 °F 62% 29.65 in 10.0 mi WNW 9.2 mph 19.6 mph N/A   Clear
6:53 PM 61.0 °F 46.9 °F 60% 29.67 in 10.0 mi WSW 5.8 mph - N/A   Clear
7:53 PM 57.0 °F 46.0 °F 67% 29.69 in 10.0 mi WNW 6.9 mph - N/A   Scattered Clouds
8:53 PM 55.0 °F 45.0 °F 69% 29.70 in 10.0 mi WNW 5.8 mph - N/A   Clear
10:53 PM 52.0 °F 44.1 °F 74% 29.70 in 10.0 mi Calm Calm - N/A   Clear
11:53 PM 52.0 °F 44.1 °F 74% 29.70 in 10.0 mi West 4.6 mph - N/A   Clear